• In Uzbekistan
  • List of Countries
  • For 7 days
  • Water Temperature
  • Satellite Maps
  • Weather Map
  • Weather Widgets
  • user-avatar
    Login

    Hourly Weather Ndjbele

    Today, 17 January, Thursday

    Time Temperature Precipitation Wind Pressure Humidity
    00:00 +23°C° 0 mm 1 mps 716 mmHg 73%
    01:00 +22°C° 0 mm 1 mps 716 mmHg 83%
    02:00 +22°C° 0 mm 1 mps 716 mmHg 92%
    03:00 +22°C° 0 mm 1 mps 716 mmHg 94%
    04:00 +20°C° 0 mm 0 mps 715 mmHg 97%
    05:00 +19°C° 0 mm 0 mps 715 mmHg 99%
    06:00 +23°C° 0 mm 1 mps 716 mmHg 93%
    07:00 +24°C° 0 mm 1 mps 716 mmHg 87%
    08:00 +25°C° 0 mm 1 mps 717 mmHg 81%
    09:00 +28°C° 0 mm 1 mps 717 mmHg 67%
    10:00 +31°C° 0 mm 1 mps 717 mmHg 53%
    11:00 +34°C° 0 mm 1 mps 717 mmHg 39%
    12:00 +35°C° 0 mm 1 mps 716 mmHg 34%
    13:00 +37°C° 0 mm 1 mps 716 mmHg 29%
    14:00 +40°C° 0 mm 1 mps 715 mmHg 24%
    15:00 +37°C° 0 mm 1 mps 715 mmHg 27%
    16:00 +35°C° 0 mm 1 mps 714 mmHg 29%
    17:00 +34°C° 0 mm 1 mps 714 mmHg 32%
    18:00 +32°C° 0 mm 1 mps 715 mmHg 36%
    19:00 +30°C° 0 mm 1 mps 715 mmHg 40%
    20:00 +28°C° 0 mm 1 mps 715 mmHg 45%
    21:00 +27°C° 0.3 mm 1 mps 716 mmHg 59%
    22:00 +26°C° 0.3 mm 1 mps 716 mmHg 74%
    23:00 +24°C° 0.3 mm 1 mps 716 mmHg 88%

    Tomorrow, 18 January, Friday

    Time Temperature Precipitation Wind Pressure Humidity
    00:00 +24°C° 0.3 mm 1 mps 716 mmHg 92%
    01:00 +24°C° 0.3 mm 1 mps 716 mmHg 95%
    02:00 +23°C° 0.3 mm 1 mps 715 mmHg 98%
    03:00 +23°C° 0 mm 1 mps 715 mmHg 98%
    04:00 +23°C° 0 mm 1 mps 715 mmHg 99%
    05:00 +22°C° 0 mm 1 mps 715 mmHg 99%
    06:00 +23°C° 0 mm 1 mps 716 mmHg 95%
    07:00 +24°C° 0 mm 1 mps 716 mmHg 91%
    08:00 +24°C° 0 mm 1 mps 717 mmHg 87%
    09:00 +28°C° 0 mm 1 mps 717 mmHg 70%
    10:00 +31°C° 0 mm 1 mps 717 mmHg 54%
    11:00 +35°C° 0 mm 2 mps 717 mmHg 38%
    12:00 +35°C° 0 mm 1 mps 716 mmHg 34%
    13:00 +36°C° 0 mm 1 mps 715 mmHg 30%
    14:00 +37°C° 0 mm 1 mps 715 mmHg 26%
    15:00 +36°C° 0 mm 1 mps 715 mmHg 29%
    16:00 +35°C° 0 mm 1 mps 714 mmHg 32%
    17:00 +33°C° 0 mm 1 mps 714 mmHg 36%
    18:00 +31°C° 0 mm 1 mps 715 mmHg 46%
    19:00 +29°C° 0 mm 2 mps 715 mmHg 56%
    20:00 +27°C° 0 mm 2 mps 716 mmHg 66%
    21:00 +26°C° 0.2 mm 2 mps 716 mmHg 74%
    22:00 +25°C° 0.2 mm 1 mps 716 mmHg 82%
    23:00 +24°C° 0.2 mm 1 mps 716 mmHg 90%

    Day after tomorrow, 19 January, Saturday

    Time Temperature Precipitation Wind Pressure Humidity
    00:00 +23°C° 0 mm 1 mps 716 mmHg 93%
    01:00 +23°C° 0 mm 1 mps 715 mmHg 95%
    02:00 +20°C° 0 mm 0 mps 715 mmHg 98%
    03:00 +20°C° 0 mm 0 mps 715 mmHg 98%
    04:00 +19°C° 0 mm 0 mps 715 mmHg 98%
    05:00 +19°C° 0 mm 0 mps 716 mmHg 98%
    06:00 +21°C° 0 mm 0 mps 716 mmHg 91%
    07:00 +22°C° 0 mm 0 mps 717 mmHg 83%
    08:00 +24°C° 0 mm 0 mps 718 mmHg 75%
    09:00 +29°C° 0 mm 1 mps 718 mmHg 60%
    10:00 +32°C° 0 mm 1 mps 718 mmHg 46%
    11:00 +35°C° 0 mm 1 mps 718 mmHg 31%
    12:00 +36°C° 0 mm 1 mps 717 mmHg 28%
    13:00 +37°C° 0 mm 1 mps 716 mmHg 25%
    14:00 +37°C° 0 mm 1 mps 715 mmHg 21%
    15:00 +36°C° 0 mm 1 mps 715 mmHg 24%
    16:00 +35°C° 0 mm 1 mps 715 mmHg 27%
    17:00 +33°C° 0 mm 1 mps 715 mmHg 29%
    18:00 +31°C° 0 mm 1 mps 715 mmHg 36%
    19:00 +28°C° 0 mm 1 mps 716 mmHg 42%
    20:00 +26°C° 0 mm 1 mps 716 mmHg 48%
    21:00 +25°C° 0 mm 1 mps 716 mmHg 60%
    22:00 +24°C° 0 mm 1 mps 716 mmHg 71%
    23:00 +23°C° 0 mm 1 mps 716 mmHg 82%

    20 January, Sunday

    Time Temperature Precipitation Wind Pressure Humidity
    00:00 +21°C° 0 mm 0 mps 716 mmHg 88%
    01:00 +21°C° 0 mm 0 mps 716 mmHg 93%
    02:00 +21°C° 0 mm 0 mps 716 mmHg 98%
    03:00 +20°C° 0 mm 0 mps 716 mmHg 98%
    04:00 +20°C° 0 mm 0 mps 716 mmHg 98%
    05:00 +20°C° 0 mm 0 mps 717 mmHg 98%
    06:00 +21°C° 0 mm 0 mps 717 mmHg 92%
    07:00 +22°C° 0 mm 0 mps 718 mmHg 87%
    08:00 +23°C° 0 mm 0 mps 718 mmHg 81%
    09:00 +27°C° 0 mm 0 mps 718 mmHg 64%
    10:00 +31°C° 0 mm 0 mps 718 mmHg 48%
    11:00 +34°C° 0 mm 0 mps 718 mmHg 31%
    12:00 +35°C° 0 mm 0 mps 718 mmHg 28%
    13:00 +36°C° 0 mm 0 mps 717 mmHg 24%
    14:00 +37°C° 0 mm 0 mps 716 mmHg 21%
    15:00 +35°C° 0 mm 0 mps 716 mmHg 24%
    16:00 +33°C° 0 mm 0 mps 716 mmHg 27%
    17:00 +33°C° 0 mm 1 mps 715 mmHg 30%
    18:00 +29°C° 0 mm 0 mps 716 mmHg 35%
    19:00 +27°C° 0 mm 0 mps 716 mmHg 40%
    20:00 +24°C° 0 mm 0 mps 717 mmHg 45%
    21:00 +23°C° 0 mm 0 mps 717 mmHg 54%
    22:00 +24°C° 0 mm 1 mps 717 mmHg 62%
    23:00 +23°C° 0 mm 1 mps 717 mmHg 71%

    21 January, Monday

    Time Temperature Precipitation Wind Pressure Humidity
    00:00 +21°C° 0 mm 0 mps 717 mmHg 79%
    01:00 +21°C° 0 mm 0 mps 716 mmHg 87%
    02:00 +20°C° 0 mm 0 mps 716 mmHg 95%
    03:00 +20°C° 0 mm 0 mps 716 mmHg 96%
    04:00 +20°C° 0 mm 0 mps 716 mmHg 96%
    05:00 +20°C° 0 mm 0 mps 717 mmHg 97%
    06:00 +21°C° 0 mm 0 mps 717 mmHg 93%
    07:00 +22°C° 0 mm 0 mps 718 mmHg 89%
    08:00 +23°C° 0 mm 0 mps 718 mmHg 84%
    09:00 +26°C° 0 mm 0 mps 718 mmHg 70%
    10:00 +29°C° 0 mm 0 mps 718 mmHg 56%
    11:00 +32°C° 0 mm 0 mps 718 mmHg 42%
    12:00 +33°C° 0 mm 0 mps 717 mmHg 36%
    13:00 +35°C° 0 mm 0 mps 717 mmHg 30%
    14:00 +36°C° 0 mm 0 mps 716 mmHg 23%
    15:00 +34°C° 0 mm 0 mps 716 mmHg 26%
    16:00 +33°C° 0 mm 0 mps 715 mmHg 29%
    17:00 +33°C° 0 mm 1 mps 715 mmHg 31%
    18:00 +29°C° 0 mm 0 mps 715 mmHg 35%
    19:00 +26°C° 0 mm 0 mps 716 mmHg 40%
    20:00 +24°C° 0 mm 0 mps 716 mmHg 44%
    21:00 +23°C° 0 mm 0 mps 716 mmHg 50%
    22:00 +22°C° 0 mm 0 mps 716 mmHg 56%
    23:00 +21°C° 0 mm 0 mps 716 mmHg 62%

    22 January, Tuesday

    Time Temperature Precipitation Wind Pressure Humidity
    00:00 +21°C° 0 mm 0 mps 716 mmHg 71%
    01:00 +21°C° 0 mm 0 mps 716 mmHg 80%
    02:00 +21°C° 0 mm 0 mps 715 mmHg 89%
    03:00 +21°C° 0 mm 0 mps 716 mmHg 92%
    04:00 +21°C° 0 mm 0 mps 716 mmHg 94%
    05:00 +20°C° 0 mm 0 mps 716 mmHg 96%
    06:00 +21°C° 0.1 mm 0 mps 716 mmHg 93%
    07:00 +22°C° 0.1 mm 0 mps 717 mmHg 89%
    08:00 +23°C° 0.1 mm 0 mps 717 mmHg 85%
    09:00 +26°C° 0 mm 0 mps 717 mmHg 69%
    10:00 +30°C° 0 mm 0 mps 717 mmHg 52%
    11:00 +33°C° 0 mm 0 mps 717 mmHg 36%
    12:00 +34°C° 0 mm 0 mps 717 mmHg 31%
    13:00 +36°C° 0 mm 0 mps 716 mmHg 26%
    14:00 +37°C° 0 mm 0 mps 715 mmHg 21%
    15:00 +35°C° 0 mm 0 mps 715 mmHg 23%
    16:00 +33°C° 0 mm 0 mps 714 mmHg 26%
    17:00 +33°C° 0 mm 1 mps 714 mmHg 29%
    18:00 +29°C° 0 mm 0 mps 714 mmHg 34%
    19:00 +26°C° 0 mm 0 mps 715 mmHg 39%
    20:00 +24°C° 0 mm 0 mps 715 mmHg 44%
    21:00 +23°C° 0 mm 0 mps 715 mmHg 49%
    22:00 +25°C° 0 mm 1 mps 715 mmHg 54%
    23:00 +24°C° 0 mm 1 mps 715 mmHg 59%
    Show more